{"data":{"norad_id":55778,"epoch":"2026-05-25T02:37:40.209888Z","epoch_age_seconds":62239,"freshness":"FRESH","line1":"1 55778U 23028AP  26145.10949317  .00000157  00000+0  20941-4 0  9991","line2":"2 55778  69.9999  31.6340 0002769 266.7907  93.2935 14.98330714177986","mean_motion":14.98330714,"eccentricity":0.0002769,"inclination_deg":69.9999,"raan_deg":31.634,"arg_perigee_deg":266.7907,"mean_anomaly_deg":93.2935,"bstar":2.0941e-5,"rev_number":17798,"period_min":96.106953327795,"perigee_km":570.12917515908,"apogee_km":573.9781907593,"semimajor_km":6950.1906829592,"source":"CELESTRAK","updated_at":"2026-05-25T13:38:17.885246Z"}}